Location: Marcé
(47.5801°N, 0.3280°W)
Time: 23:31:54
(UTC+01:00)

Transit 2A - Pass Details

Date: 06 December 2021
Orbit: 591 x 967 km, 66.7° (Epoch: 23 January)

Event Time Altitude Azimuth Distance (km) Brightness Sun altitude
Rises 23:36:51 0° 183° (S) 3,287 - -60.8°
Reaches altitude 10° 23:39:21 10° 174° (S) 2,421 - -61.0°
Maximum altitude 23:44:23 35° 111° (ESE) 1,398 - -61.5°
Drops below altitude 10° 23:49:51 10° 48° (NE) 2,635 - -62.0°
Sets 23:52:40 0° 40° (NE) 3,619 - -62.3°
